Regional Weather Roundup
Issued by NWS

Home | Current Version | Previous Version | Graphics & Text | Print | Product List | Glossary On
Versions: 1 2 3 4 5 6 7 8 9 10 11 12 13 14 15 16 17 18 19 20 21 22 23 24 25 26 27
000
ASUS45 KCYS 250610
RWRWY

WYOMING REGIONAL WEATHER ROUNDUP
NATIONAL WEATHER SERVICE CHEYENNE WY
1200 AM MDT FRI APR 25 2014

NOTE:  "FAIR" INDICATES FEW OR NO CLOUDS BELOW 12,000 FEET
WITH NO SIGNIFICANT WEATHER AND/OR OBSTRUCTIONS TO VISIBILITY.

WYZ001-250700-
YELLOWSTONE NATIONAL PARK

CITY           SKY/WX    TMP DP  RH WIND       PRES   REMARKS
LK YELLOWSTONE   N/A     31  30  96 CALM      29.96S
6HR MIN TEMP:  30; 6HR MAX TEMP:  34; 6HR PCP:  0.29;

W YELLOWSTONE  NOT AVBL

$$
WYZ002>013-054>058-071-098>099-250700-
NORTHERN WYOMING

CITY           SKY/WX    TMP DP  RH WIND       PRES   REMARKS
JACKSON        CLOUDY    36  34  93 S10       29.98S WCI  28
CODY           MOCLDY    45  32  61 W12G23    29.85F
GREYBULL       CLOUDY    51  28  41 E8        29.82S
6HR MIN TEMP:  50; 6HR MAX TEMP:  65;

WORLAND        PTCLDY    39  28  64 SE6       29.85R WCI  35
6HR MIN TEMP:  39; 6HR MAX TEMP:  64;

SHERIDAN         N/A     39  23  52 W12         N/A  WCI  32
6HR MIN TEMP:  38; 6HR MAX TEMP:  59;

BUFFALO        CLEAR     42  27  55 NW8       29.86R
6HR MIN TEMP:  42; 6HR MAX TEMP:  58;

GILLETTE       PTCLDY    31  24  75 CALM      29.83R
6HR MIN TEMP:  31; 6HR MAX TEMP:  58;

HULETT         FAIR     N/A N/A N/A CALM      29.83
NEWCASTLE      FAIR      41  27  56 MISG      29.83

$$
WYZ014>020-022>026-101>103-250700-
CENTRAL WYOMING

CITY           SKY/WX    TMP DP  RH WIND       PRES   REMARKS
BIG PINEY      PTCLDY    30  18  60 E7        29.98F WCI  23
6HR MIN TEMP:  28; 6HR MAX TEMP:  48;

PINEDALE       PTCLDY    28  25  86 W6        30.00F WCI  22
DUBOIS         FAIR      37  21  52 W17G29    29.92F WCI  28
LANDER         PTCLDY    43  23  45 E9        29.90R
6HR MIN TEMP:  43; 6HR MAX TEMP:  58;

RIVERTON       MOCLDY    42  23  46 NW7       29.91S
6HR MIN TEMP:  42; 6HR MAX TEMP:  60;

CASPER         PTCLDY    43  22  43 SW9       29.90S
6HR MIN TEMP:  43; 6HR MAX TEMP:  61;

DOUGLAS        MOCLDY    51  23  33 W22G31    29.86R
6HR MIN TEMP:  51; 6HR MAX TEMP:  63;


$$
WYZ021-027>030-104>119-250700-
SOUTHERN WYOMING

CITY           SKY/WX    TMP DP  RH WIND       PRES   REMARKS
EVANSTON       MOCLDY    42  19  39 CALM      29.97F
6HR MIN TEMP:  40; 6HR MAX TEMP:  52;

KEMMERER       CLEAR     36  21  55 CALM      29.99S
FORT BRIDGER   FAIR      34  24  65 S7        30.00F WCI  28
ROCK SPRINGS   PTCLDY    41  18  39 SW6       29.98F
6HR MIN TEMP:  40; 6HR MAX TEMP:  54;

DIXON          CLOUDY    44  29  54 E5        30.04R
RAWLINS        MOCLDY    40  19  43 SW9       29.99F WCI  34
6HR MIN TEMP:  40; 6HR MAX TEMP:  53;

SARATOGA       CLOUDY    41  23  48 S6        30.02F
LARAMIE        CLOUDY    42  26  53 W22G30    30.01R
6HR MIN TEMP:  41; 6HR MAX TEMP:  51;

CHEYENNE       CLOUDY    50  20  30 W13       29.95R
6HR MIN TEMP:  49; 6HR MAX TEMP:  58;

TORRINGTON     MOCLDY    57  27  31 W24G32    29.83R
6HR MIN TEMP:  53; 6HR MAX TEMP:  63;

PINE BLUFFS    FAIR      48  27  43 W10       29.91S

$$



USA.gov is the U.S. government's official web portal to all federal, state and local government web resources and services.